Weather History for Northway, AK

Change the Weather History Date:

Friday, October 11, 2013

  Actual Average Record
Temperature  
Mean Temperature 36 °F -  
Max Temperature 46 °F 34 °F 58 °F (1969)
Min Temperature 25 °F 18 °F -9 °F (1961)
Degree Days  
Heating Degree Days 29    
Moisture  
Dew Point 26 °F    
Average Humidity 75    
Maximum Humidity 92    
Minimum Humidity 49    
Precipitation  
Precipitation 0.00 in - - ()
Sea Level Pressure  
Sea Level Pressure 29.90 in    
Wind  
Wind Speed 5 mph (ESE)    
Max Wind Speed 9 mph    
Max Gust Speed -    
Visibility 10 miles    
Events      
Averages and records for this station are not official NWS values.
T = Trace of Precipitation, MM = Missing Value Source: NWS Daily Summary

Daily Weather History Graph

Daily Weather History Graph

Search for Another Location

Airport:

Trip Planner

Search our weather history database for the weather conditions in past years. The results will help you decide how hot, cold, wet, or windy it might be!

Date:

Astronomy

Oct. 11, 2013 Rise Set
Actual Time 8:04 AM AKDT 6:22 PM AKDT
Civil Twilight 7:18 AM AKDT 7:08 PM AKDT
Nautical Twilight 6:25 AM AKDT 8:01 PM AKDT
Astronomical Twilight 5:30 AM AKDT 8:55 PM AKDT
Moon 3:55 PM AKDT (10/11) 11:21 PM AKDT (10/11)
Length of Visible Light 11h 50m
Length of Day
10h 18m
Waxing Crescent, 49% of the Moon is Illuminated
Oct 11
Waxing Crescent
Oct 11
First Quarter
Oct 18
Full
Oct 26
Last Quarter
Nov 3
New

Hourly Weather History & Observations

Time (AKDT) Temp. Windchill Dew Point Humidity Pressure Visibility Wind Dir Wind Speed Gust Speed Precip Events Conditions
12:53 AM 32.0 °F 28.7 °F 27.0 °F 82% 29.80 in 10.0 mi ESE 3.5 mph - N/A   Overcast
1:53 AM 32.0 °F 27.5 °F 27.0 °F 82% 29.80 in 10.0 mi ESE 4.6 mph - N/A   Mostly Cloudy
2:53 AM 30.9 °F 25.2 °F 26.1 °F 82% 29.81 in 10.0 mi SE 5.8 mph - N/A   Overcast
3:53 AM 28.9 °F 23.9 °F 26.1 °F 89% 29.82 in 10.0 mi ESE 4.6 mph - N/A   Mostly Cloudy
4:53 AM 30.0 °F 25.2 °F 26.1 °F 85% 29.83 in 10.0 mi East 4.6 mph - N/A   Mostly Cloudy
5:53 AM 30.9 °F 24.3 °F 26.1 °F 82% 29.84 in 10.0 mi ESE 6.9 mph - N/A   Mostly Cloudy
6:53 AM 30.0 °F 25.2 °F 26.1 °F 85% 29.86 in 10.0 mi East 4.6 mph - N/A   Mostly Cloudy
7:53 AM 30.0 °F 24.1 °F 26.1 °F 85% 29.87 in 10.0 mi East 5.8 mph - N/A   Overcast
8:53 AM 30.0 °F 23.2 °F 26.1 °F 85% 29.87 in 10.0 mi East 6.9 mph - N/A   Mostly Cloudy
9:53 AM 30.9 °F 23.5 °F 27.0 °F 85% 29.89 in 10.0 mi ESE 8.1 mph - N/A   Mostly Cloudy
10:53 AM 34.0 °F 27.2 °F 27.0 °F 75% 29.90 in 10.0 mi ESE 8.1 mph - N/A   Scattered Clouds
11:53 AM 37.0 °F 30.4 °F 27.0 °F 67% 29.91 in 10.0 mi ESE 9.2 mph - N/A   Mostly Cloudy
12:53 PM 39.9 °F 34.5 °F 28.0 °F 63% 29.91 in 10.0 mi SE 8.1 mph - N/A   Scattered Clouds
1:53 PM 43.0 °F 39.5 °F 28.0 °F 56% 29.90 in 10.0 mi SSE 5.8 mph - N/A   Scattered Clouds
2:53 PM 45.0 °F 41.2 °F 28.0 °F 52% 29.92 in 10.0 mi East 6.9 mph - N/A   Scattered Clouds
3:53 PM 45.0 °F 41.2 °F 27.0 °F 49% 29.92 in 10.0 mi SE 6.9 mph - N/A   Scattered Clouds
4:53 PM 44.1 °F 42.5 °F 27.0 °F 51% 29.92 in 10.0 mi SE 3.5 mph - N/A   Scattered Clouds
5:53 PM 39.9 °F 35.8 °F 27.0 °F 60% 29.94 in 10.0 mi SSE 5.8 mph - N/A   Scattered Clouds
6:53 PM 37.0 °F 33.3 °F 26.1 °F 65% 29.95 in 10.0 mi SE 4.6 mph - N/A   Scattered Clouds
7:53 PM 33.1 °F 30.0 °F 26.1 °F 75% 29.97 in 10.0 mi ENE 3.5 mph - N/A   Scattered Clouds
8:53 PM 32.0 °F 27.5 °F 26.1 °F 79% 29.98 in 10.0 mi ESE 4.6 mph - N/A   Scattered Clouds
9:53 PM 30.9 °F 27.5 °F 26.1 °F 82% 29.99 in 10.0 mi ESE 3.5 mph - N/A   Scattered Clouds
10:53 PM 27.0 °F 23.0 °F 24.1 °F 89% 29.99 in 10.0 mi SSE 3.5 mph - N/A   Scattered Clouds
11:53 PM 25.0 °F - 23.0 °F 92% 29.99 in 10.0 mi Calm Calm - N/A   Partly Cloudy